Location: Unspecified
(40.7945°N, 0.0000°E)
Time: 18:40:26
(UTC+00:00)

Courier 1B - Pass Details

Date: 23 January 2021
Orbit: 962 x 1209 km, 28.3° (Epoch: 07 March)

Event Time Altitude Azimuth Distance (km) Brightness Sun altitude
Rises 22:53:36 0° 220° (SW) 3,747 - -62.7°
Reaches altitude 10° 22:57:16 10° 202° (SSW) 2,756 - -63.1°
Maximum altitude 23:01:29 18° 162° (SSE) 2,207 - -63.7°
Drops below altitude 10° 23:05:37 10° 122° (ESE) 2,697 - -64.2°
Sets 23:09:08 0° 104° (ESE) 3,635 - -64.6°
